Startpagina
METAR-TAF:

METAR-TAF

Vliegvelden :

Sandpoint Airport (Dave Wall Field)

Sandpoint, Idaho, Verenigde Staten

breedte: 48-17-58N, lengte: 116-33-36W, hoogte: 648 m

Actueel weer

Dit bericht is 14 minuten geleden gemaakt, om 09:35 UTC
Wind 6 kt uit het noordnoordoosten
Temperatuur -5°C
Vochtigheid 73%
Druk 1016 hPa
Zicht: 16.1 km

METAR: KSZT 160935Z AUTO 03006KT 10SM M05/M09 A3000 RMK AO2

Tijdstip: 01:49 (09:49 UTC)


TAF: ontbreekt

Waarnemingen en weersverwachtingen van meer dan 4000 vliegvelden (METAR en TAF).

De beschikbare stations zijn de gele en rode punten op de kaart.

Ga met uw muis naar het station om de naam te zien.

Klik dan om waarnemingen en weersverwachtingen te zien.

kaart wijzigen: klik op de groene knoppen met een zwart kruis om in te zoomen, op de groene knop met een streepje om uit te zoomen of op de groene pijlen voor aangrenzende kaarten.


METAR-TAF: